Tracking 25709 objects as of 24-May-2022
HD Live streaming from Space Station
objects crossing your sky now

COSMOS 2491 DEB

Track COSMOS 2491 DEB now!
10-day predictions


NORAD ID: 45128
Int'l Code: 2013-076Z
Perigee: 809.9 km
Apogee: 846.1 km
Inclination: 81.2 °
Period: 101.3 minutes
Semi major axis: 7199 km
RCS: Unknown
Launch date: December 25, 2013
Source: Commonwealth of Independent States (former USSR) (CIS)
Launch site: PLESETSK MISSILE AND SPACE COMPLEX (PKMTR)

Note: This is SATELLITE DEBRIS
aabbcc
Your satellite tracking list
Your tracking list is empty




NASA's NSSDC Master Catalog

Two Line Element Set (TLE):
1 45128U 13076AA  22140.10230976  .00006888  00000-0  31423-2 0  9999
2 45128  81.2134  65.0209 0025174 290.0631  69.7836 14.21323729119647
Source of the keplerian elements: AFSPC